SCP
0 0 0 0 0 0 0 0 0 0 0 0 0 0 0 0 0 0 0 0 -0 -0 -0 -0 -0 -0 -0 -0 -0 -0 0 0 0 0 0 0 0 0 0 0 0 0 0
0 0 0 0 0 0 0 0 0 0 0 0 0 0 0 0 0 0 0 0 -0 -0 -0 -0 -0 -0 -0 -0 -0 0 0 0 0 0 0 0 0 0 0 0 0 0 0
0 0 0 0 0 0 0 0 0 0 0 0 0 0 0 0 0 0 0 0 0 -0 -0 -0 -0 -0 -0 0 0 0 0 0 0 0 0 0 0 0 0 0 0 0 0
0 0 0 0 0 0 0 0 0 0 0 0 0 0 0 0 0 0 0 0 0 0 0 0 0 0 0 0 0 0 0 0 0 0 0 0 0 0 0 0 0 0 0
0 0 0 0 0 0 0 0 0 0 0 0 0 0 0 0 0 0 0 0 0 0 0 0 0 0 0 0 0 0 0 0 0 0 0 0 0 0 0 0 0 0 0
0 0 0 0 0 0 0 0 0 0 0 0 0 0 0 0 0 0 0 0 0 0 0 0 0 0 0 0 0 0 0 0 0 0 0 0 0 0 0 0 0 0 0
0 0 0 0 0 0 0 0 0 0 0 0 0 0 0 0 0 0 0 0 0 0 0 0 0 0 0 0 0 0 0 0 0 0 0 0 0 0 0 0 0 0 0
0 0 0 0 0 0 0 0 0 0 0 0 0 0 0 0 0 0 0 0 0 0 0 0 0 0 0 0 0 0 0 0 0 0 0 0 -0 -0 0 0 0 0 0
0 0 0 0 0 0 0 0 0 0 0 0 0 0 0 0 0 0 0 0 0 0 0 0 0 0 0 0 0 0 0 0 0 0 0 0 0 -0 -0 0 0 0 0
0 0 0 0 0 0 0 0 0 0 0 0 0 0 0 0 0 0 0 0 0 0 0 0 0 0 0 0 0 0 0 0 0 0 0 0 0 0 0 0 0 0 0
0 1 1 1 1 1 1 1 1 1 1 1 1 0 0 0 0 0 0 0 0 0 0 0 0 0 0 0 0 0 0 0 0 0 0 0 0 0 0 0 0 0 0
0 1 1 1 1 1 1 1 1 1 1 1 1 1 1 1 0 0 0 0 0 0 0 0 0 0 0 0 0 0 0 0 0 0 0 0 0 0 0 0 0 0 0
0 1 1 1 1 1 1 1 1 1 1 1 1 1 1 1 1 1 1 1 1 1 0 0 0 0 0 1 1 0 0 0 0 0 0 0 0 0 0 0 0 0 0
0 0 1 1 1 1 1 1 1 1 1 1 1 1 1 1 1 1 1 1 1 1 1 1 1 1 1 1 1 1 1 0 0 0 0 0 0 0 0 0 0 0 0
0 0 0 1 1 1 1 1 1 1 1 1 1 1 2 2 1 1 1 1 1 1 1 1 1 1 1 1 1 1 1 1 1 0 0 0 -0 0 -0 -0 -0 -0 0
1 1 1 1 1 1 1 1 1 1 1 1 1 2 2 2 2 1 1 1 1 1 1 1 1 1 1 1 1 1 1 1 1 0 0 0 -0 -0 -0 -0 -0 -0 0
1 1 1 1 1 1 1 1 1 1 1 1 1 1 1 1 2 1 1 1 1 1 1 1 1 1 1 1 1 1 1 1 1 1 0 0 0 0 -0 -0 0 0 0
2 1 1 1 1 1 1 1 1 1 1 1 1 1 1 1 1 1 1 1 1 1 1 1 1 1 1 1 1 1 1 1 1 1 1 0 0 0 0 0 0 0 0
2 1 1 1 1 1 1 1 1 1 1 1 1 1 1 1 1 1 1 1 1 1 1 1 1 1 1 1 1 1 1 1 1 1 1 0 0 0 0 0 0 1 1
1 1 1 1 1 1 1 1 1 1 1 1 1 1 1 1 1 1 1 1 1 1 1 1 1 1 1 1 1 1 1 1 1 1 1 0 0 0 0 0 1 1 1
1 1 1 1 1 1 1 1 0 0 0 0 0 0 1 1 0 0 1 1 1 1 1 1 1 1 1 1 1 1 1 1 0 0 0 0 0 0 0 0 0 0 0
-0 0 0 1 1 1 0 0 0 0 0 0 0 0 0 0 0 0 0 0 0 1 1 1 1 1 1 1 1 1 1 0 0 0 0 0 0 0 0 0 0 0 0
-0 -0 0 0 0 0 0 0 0 0 0 0 0 0 0 0 0 0 0 0 0 0 0 1 1 1 1 1 1 1 0 0 0 0 0 0 0 0 0 0 0 0 0
-0 -0 0 0 0 0 0 0 0 0 0 0 0 0 0 0 0 0 0 0 0 0 0 0 1 1 1 1 1 1 1 0 0 0 0 0 0 0 0 0 0 0 0
-0 0 0 0 0 0 0 0 0 0 0 0 0 0 0 0 0 0 0 0 0 0 0 0 1 1 1 1 1 1 1 1 0 0 0 0 0 0 0 0 0 0 0
0 0 0 0 0 0 0 0 0 0 0 0 0 0 0 0 0 0 0 0 0 0 0 0 0 1 1 1 1 1 1 1 1 0 0 0 0 0 0 0 0 0 0
Wind_Speed
7 11 19 18 17 16 15 15 14 15 15 15 15 14 13 12 11 11 10 10 9 9 9 8 8 8 8 8 8 9 9 9 9 9 9 10 11 11 11 10 10 8 11
12 13 19 19 18 17 15 14 15 15 15 14 14 13 12 11 10 10 10 9 8 8 8 8 8 7 7 7 7 7 7 7 8 8 7 8 8 8 10 10 9 7 11
13 12 15 18 18 17 16 15 15 15 15 14 13 12 12 11 10 9 9 8 8 7 7 7 7 7 6 6 6 6 6 5 5 6 6 3 3 4 7 10 10 11 10
13 10 10 17 16 16 16 15 15 16 15 15 14 12 11 10 9 8 8 8 7 6 5 5 6 6 6 5 5 5 5 6 5 5 4 2 2 3 7 10 10 10 11
10 9 11 18 16 16 16 16 16 16 15 15 14 13 12 10 9 8 7 7 6 6 5 4 4 5 5 5 5 5 5 5 6 5 3 3 2 4 6 9 10 10 10
10 8 12 19 17 16 16 15 15 15 15 14 13 12 11 10 9 8 7 7 6 6 5 5 5 5 6 6 6 6 6 6 5 3 3 3 4 6 9 10 11 11 10
10 8 10 18 17 15 15 14 14 14 13 12 11 10 10 9 9 8 8 8 8 7 7 7 8 8 8 8 8 8 7 8 5 4 4 4 5 8 11 14 14 13 12
9 8 8 17 17 16 15 14 14 13 12 11 11 10 9 9 9 8 9 9 9 9 9 9 10 10 10 9 9 9 9 9 7 5 5 5 7 9 10 14 16 16 16
7 6 5 8 10 14 14 14 13 12 11 11 10 10 10 10 10 11 11 11 11 11 11 12 12 12 12 11 11 11 11 10 7 5 6 5 8 10 11 13 15 16 16
6 5 4 5 5 5 7 12 12 11 11 11 11 11 11 11 11 11 11 12 13 13 14 14 14 14 13 12 12 13 13 11 8 8 6 6 11 12 13 13 15 17 17
8 6 5 5 5 5 5 8 11 12 12 11 10 13 12 6 6 7 10 13 14 14 15 15 15 15 14 13 14 15 13 5 7 7 7 10 13 14 15 15 14 17 18
10 8 6 7 7 6 6 5 5 5 6 6 5 6 5 4 5 7 8 14 15 16 17 17 16 16 13 7 10 14 6 8 8 8 8 14 16 17 17 16 16 16 18
10 9 8 7 7 7 5 4 3 3 4 5 6 6 4 4 4 6 4 7 9 11 9 10 11 8 7 6 7 7 8 8 7 7 9 15 16 18 18 17 16 16 17
9 10 8 7 6 6 4 3 3 3 3 4 5 6 5 4 5 5 5 6 6 5 6 7 5 7 9 9 10 10 11 8 7 6 8 17 17 18 18 17 16 15 17
10 9 8 8 9 7 6 4 4 5 5 5 4 5 7 7 7 7 6 6 7 6 7 8 8 9 10 10 10 11 11 11 10 10 7 16 17 18 18 18 17 17 17
8 8 8 9 9 7 7 6 5 4 4 4 5 7 9 8 7 7 8 7 7 8 8 8 10 9 8 8 10 11 11 10 10 10 10 11 17 17 18 19 19 18 17
7 6 6 6 5 5 6 6 4 4 4 5 6 7 8 8 8 8 7 7 8 8 9 8 10 8 7 7 9 10 8 9 10 11 11 9 9 13 16 18 18 18 18
6 6 7 7 7 7 7 6 5 5 5 6 6 6 8 9 8 7 6 8 8 7 7 8 8 7 7 8 8 7 7 7 11 11 9 9 8 8 11 15 17 18 19
6 6 6 6 6 7 7 5 5 4 5 4 4 4 5 6 7 6 6 7 7 6 6 7 7 7 8 8 8 7 6 7 8 9 10 10 9 9 9 11 15 16 19
4 4 4 4 3 3 3 3 3 3 4 3 3 4 4 4 5 4 5 6 6 5 6 6 8 8 6 6 7 6 6 7 6 7 10 9 8 11 11 11 9 10 16
2 3 3 3 3 3 2 2 2 2 2 1 2 3 4 4 4 4 4 5 5 5 6 7 7 8 7 4 3 4 5 7 8 8 8 8 10 11 10 10 8 7 7
3 2 3 3 3 3 2 2 2 2 1 2 2 3 3 4 5 5 5 6 6 5 7 7 6 4 4 5 5 4 4 3 5 6 6 7 8 7 8 10 10 10 9
5 5 4 5 4 3 3 1 1 1 1 2 2 2 3 4 5 5 6 6 7 7 7 8 7 8 6 6 6 5 4 6 3 2 3 4 5 5 6 6 9 10 10
7 5 5 5 4 3 3 3 3 2 2 2 1 3 5 6 7 7 8 8 8 7 9 9 8 8 8 7 6 7 6 4 4 2 1 2 3 4 5 4 5 6 5
4 4 4 4 4 3 3 4 4 3 3 1 1 3 5 6 7 8 9 9 9 8 9 10 9 9 8 8 7 6 7 6 6 5 4 2 2 2 2 3 3 3 2
3 4 3 4 5 4 5 5 6 6 5 3 2 3 4 4 5 7 8 8 9 8 9 8 8 10 9 9 8 6 6 5 6 6 7 5 3 2 0 2 2 2 2
Wind_Direction
161 160 162 158 157 153 145 141 136 130 127 125 127 132 134 135 136 135 131 127 119 113 110 109 110 109 108 105 103 102 103 110 114 112 117 121 123 119 113 114 117 120 123
151 159 163 161 159 155 150 147 143 138 136 133 133 136 136 137 139 137 135 132 126 120 117 114 113 112 113 114 114 114 116 120 124 124 133 132 130 125 127 129 130 134 132
146 158 163 162 160 157 156 155 151 147 144 142 141 140 139 142 144 143 140 138 136 132 127 126 125 122 122 123 126 127 128 127 129 141 128 96 131 152 164 148 149 143 143
149 153 161 164 162 160 160 160 158 155 152 151 150 149 148 147 148 149 149 149 149 147 145 146 146 143 144 145 147 147 148 152 157 152 130 158 207 157 155 159 162 157 153
146 152 166 167 168 167 166 167 165 162 159 158 158 159 159 159 162 163 164 165 166 168 171 176 175 172 172 176 182 183 180 180 185 172 169 186 201 200 179 175 176 177 169
149 155 171 171 174 175 173 174 171 168 165 165 165 165 167 171 177 180 180 185 188 190 198 207 213 213 210 210 213 215 213 214 209 191 207 218 212 216 212 200 195 191 187
154 158 173 173 177 179 179 180 181 178 174 173 174 176 179 185 194 198 202 204 206 210 216 224 230 234 237 238 237 235 234 236 222 219 231 237 237 245 238 214 204 201 198
152 156 171 177 180 182 183 185 187 185 183 183 185 189 194 199 204 207 213 220 221 220 224 232 238 240 243 247 248 248 251 252 249 233 234 241 248 259 251 222 210 207 204
134 144 164 175 185 187 188 191 193 191 191 194 197 201 207 214 220 220 217 223 228 231 236 240 244 247 248 246 249 252 256 260 257 249 251 245 252 260 262 238 223 218 212
124 130 146 154 171 182 191 199 202 204 201 203 208 214 220 225 230 230 225 228 234 239 244 247 247 251 251 248 250 253 255 257 256 256 254 252 253 259 264 257 240 228 221
151 143 144 148 154 169 183 204 206 210 211 212 217 225 227 229 237 242 240 237 242 248 251 253 252 252 252 252 252 253 256 246 251 256 256 256 259 259 259 260 255 241 231
174 169 160 163 163 168 190 194 200 202 205 209 209 225 225 219 232 242 247 247 247 250 254 255 254 255 253 246 250 254 249 245 250 256 255 256 259 260 260 257 252 249 241
180 183 182 180 178 180 187 181 188 192 197 207 212 215 218 224 239 247 245 253 254 256 256 258 255 249 243 237 239 241 246 247 250 255 257 257 257 257 260 260 253 247 243
179 195 192 188 188 195 200 206 205 203 208 215 215 210 212 224 234 239 242 241 241 243 246 250 248 245 243 242 241 243 245 245 245 249 255 259 259 261 261 264 260 259 254
186 195 195 195 201 199 202 213 216 219 224 228 225 220 221 228 235 235 239 240 243 245 244 242 243 242 243 243 242 241 244 243 244 246 251 257 260 262 262 262 264 266 263
193 199 198 202 208 207 214 220 225 229 237 239 237 235 232 233 236 234 237 238 241 243 246 246 244 241 238 236 239 239 242 242 244 245 248 255 258 259 260 261 261 262 255
202 205 208 210 206 215 231 236 230 226 227 233 240 243 242 241 244 245 243 244 244 242 246 250 249 242 241 239 242 242 242 243 243 244 247 251 256 256 256 260 262 259 252
188 195 209 212 201 209 218 224 226 228 233 243 246 246 248 248 248 252 254 256 254 247 243 244 245 240 239 239 240 240 239 243 247 245 244 247 254 261 261 259 259 259 257
172 180 188 198 205 211 215 221 229 234 238 248 255 253 255 259 255 246 251 260 263 257 248 245 241 233 232 233 235 236 236 239 245 249 248 247 249 256 261 261 257 255 258
154 166 175 183 185 176 193 210 229 246 248 241 240 241 247 252 256 250 252 260 265 262 257 247 247 240 233 232 241 244 237 236 237 240 246 247 244 248 253 257 259 256 257
169 168 171 171 174 160 160 180 209 244 258 262 258 266 282 293 296 286 275 273 265 256 253 249 245 243 238 212 210 248 249 238 238 239 239 241 246 249 253 257 260 262 259
220 201 192 199 201 193 177 186 193 213 256 272 290 309 324 327 315 307 292 285 277 267 260 253 242 240 232 194 197 219 261 273 240 238 243 244 249 252 257 260 261 259 256
235 227 219 218 219 219 202 177 146 34 347 336 335 331 331 320 307 298 291 286 281 272 265 252 239 235 240 219 200 197 207 228 260 268 247 249 250 248 257 267 271 266 257
231 232 232 229 227 227 200 198 196 199 234 247 290 303 311 314 312 308 300 294 288 280 272 262 247 234 231 229 212 212 215 188 195 254 269 249 241 248 262 276 276 272 251
240 237 239 249 260 253 226 214 203 205 208 215 246 285 297 303 305 305 303 299 292 284 278 270 258 244 231 228 217 206 213 212 204 215 245 246 256 253 267 289 285 282 273
265 255 243 245 259 251 231 213 200 202 197 208 251 284 294 298 300 297 305 303 297 290 284 278 269 257 244 236 226 208 196 194 198 203 221 229 239 248 282 9 5 7 12